CAPE
83 25 4 2 0 0 0 0 0 0 0 0 0 0 0 0 0 0 0 0 0 0 0 0 0 0 0 0 0 0 0 0 0 0 0 0 0 0 0 0 0 0 0
47 3 1 2 0 0 0 0 0 0 0 0 0 0 0 0 0 0 0 0 0 0 0 0 0 0 0 0 0 0 0 0 0 0 0 0 0 0 0 0 0 0 0
107 151 254 0 0 0 0 0 0 0 0 0 0 0 0 0 0 0 0 0 0 0 0 0 0 0 0 0 0 0 0 0 0 0 0 0 0 0 0 0 0 0 0
354 226 205 1 0 0 0 0 0 0 0 0 0 0 0 0 0 0 0 0 0 0 0 0 0 0 0 0 0 0 0 0 0 0 0 0 0 0 0 0 0 0 0
449 214 98 0 0 0 0 0 0 0 0 0 0 0 0 0 0 0 0 0 0 0 0 0 0 0 0 0 0 0 0 0 0 0 0 0 0 0 0 0 0 0 0
230 243 284 60 0 0 0 0 0 0 0 0 0 0 0 0 0 0 0 0 0 0 0 0 0 0 0 0 0 0 0 0 0 0 0 0 0 0 0 0 0 0 0
172 169 192 20 0 0 0 0 0 0 0 0 0 0 0 0 0 0 0 0 0 0 0 0 0 0 0 0 0 0 0 0 0 0 0 0 0 0 0 0 0 0 0
171 165 294 124 11 0 0 0 0 0 0 0 0 0 0 0 0 0 0 0 0 0 0 0 0 0 0 0 0 0 0 0 0 0 0 0 0 0 0 0 0 0 0
83 191 254 312 145 0 0 0 0 0 0 0 0 0 0 0 0 0 0 0 0 0 0 0 0 0 0 0 0 0 0 0 0 0 0 0 0 0 0 0 0 0 0
89 144 251 371 219 72 0 0 0 0 0 0 0 0 0 0 0 0 0 0 0 0 0 0 0 0 0 0 0 0 0 0 0 0 0 0 0 0 0 0 0 0 0
72 150 261 233 160 80 0 0 0 0 0 0 0 0 0 0 0 0 0 0 0 0 0 0 0 0 0 0 0 0 0 0 0 0 0 0 0 0 0 0 0 0 1
0 0 14 79 192 12 0 0 0 0 0 0 0 0 0 0 0 0 0 0 0 0 0 0 0 0 0 0 0 0 0 0 0 0 0 0 0 0 0 0 0 0 0
0 0 0 0 157 100 4 0 0 0 0 0 0 0 0 0 0 0 0 0 0 0 0 0 0 0 0 0 0 0 0 0 0 0 0 0 0 0 0 0 0 0 0
0 0 0 0 0 1 3 0 0 0 0 0 0 0 0 0 0 0 0 0 0 0 0 0 0 0 0 0 0 0 0 0 0 0 0 0 0 0 0 0 0 0 0
0 0 0 0 0 0 0 0 0 0 0 0 0 0 0 0 0 0 0 0 0 0 0 0 0 0 0 0 0 0 0 0 0 0 0 0 0 0 0 0 0 0 0
0 0 0 0 0 0 0 0 0 0 0 0 0 0 0 0 0 0 0 0 0 0 0 0 0 0 0 0 0 0 0 0 0 0 0 0 0 0 0 0 0 0 0
0 0 0 0 0 0 0 0 0 0 0 0 0 0 0 0 0 0 0 0 0 0 0 0 0 0 0 0 0 0 0 0 0 0 0 0 0 0 0 0 0 0 0
0 0 0 0 0 0 0 0 0 0 0 0 0 0 0 0 0 0 0 0 0 0 0 0 0 0 0 0 0 0 0 0 0 0 0 0 0 0 0 0 0 0 0
0 0 0 0 0 0 0 0 0 0 0 0 0 0 0 0 0 0 0 0 0 0 0 0 0 0 0 0 0 0 0 0 0 0 0 0 0 0 0 0 0 0 0
0 0 0 0 0 0 0 0 0 0 0 0 0 0 0 0 0 0 0 0 0 0 0 0 0 0 0 0 0 0 0 0 0 0 0 0 0 0 0 0 0 0 0
0 0 0 0 0 0 0 0 0 0 0 0 0 0 0 0 0 0 0 0 0 0 0 0 0 0 0 0 0 0 0 0 0 0 0 0 0 0 0 0 0 0 0
0 0 0 0 0 0 0 0 0 0 0 0 0 0 0 0 0 0 0 0 0 0 0 0 0 0 0 0 0 0 0 0 0 0 0 0 0 0 0 0 0 0 0
0 0 0 0 0 0 0 0 0 0 0 0 0 0 0 0 0 0 0 0 0 0 0 0 0 0 0 0 0 0 0 0 0 0 0 0 0 0 0 0 0 0 0
0 0 0 0 0 0 0 0 0 0 0 0 0 0 0 0 0 0 0 0 0 0 0 0 0 0 0 0 0 0 0 0 0 0 0 0 0 0 0 0 0 0 0
0 0 0 0 0 0 0 0 0 0 0 0 0 0 0 0 0 0 0 0 0 0 0 0 0 0 0 0 0 0 0 0 0 0 0 0 0 0 0 0 0 0 0
0 0 0 0 0 0 0 0 0 0 0 0 0 0 0 0 0 0 0 0 0 0 0 0 0 0 0 0 0 0 0 0 0 0 0 0 0 0 0 0 0 0 0
CIN
-56 -101 -54 -0 -0 -0 -0 -0 -0 -0 -0 -0 -0 -0 -0 -0 -0 -0 -0 -0 -0 -0 -0 -0 -0 -0 -0 -0 -0 -0 -0 -0 -0 -0 -0 -0 -0 -0 -0 -0 -0 -0 -0
-102 -54 -69 -39 -0 -0 -0 -0 -0 -0 -0 -0 -0 -0 -0 -0 -0 -0 -0 -0 -0 -0 -0 -0 -0 -0 -0 -0 -0 -0 -0 -0 -0 -0 -0 -0 -0 -0 -0 -0 -0 -0 -0
-105 -95 -60 -0 -0 -0 -0 -0 -0 -0 -0 -0 -0 -0 -0 -0 -0 -0 -0 -0 -0 -0 -0 -0 -0 -0 -0 -0 -0 -0 -0 -0 -0 -0 -0 -0 -0 -0 -0 -0 -0 -0 -0
-39 -48 -30 -0 -0 -0 -0 -0 -0 -0 -0 -0 -0 -0 -0 -0 -0 -0 -0 -0 -0 -0 -0 -0 -0 -0 -0 -0 -0 -0 -0 -0 -0 -0 -0 -0 -0 -0 -0 -0 -0 -0 -0
-70 -82 -104 -0 -0 -0 -0 -0 -0 -0 -0 -0 -0 -0 -0 -0 -0 -0 -0 -0 -0 -0 -0 -0 -0 -0 -0 -0 -0 -0 -0 -0 -0 -0 -0 -0 -0 -0 -0 -0 -0 -0 -0
-127 -90 -109 -242 -0 -0 -0 -0 -0 -0 -0 -0 -0 -0 -0 -0 -0 -0 -0 -0 -0 -0 -0 -0 -0 -0 -0 -0 -0 -0 -0 -0 -0 -0 -0 -0 -0 -0 -0 -0 -0 -0 -0
-175 -150 -95 -248 -0 -0 -0 -0 -0 -0 -0 -0 -0 -0 -0 -0 -0 -0 -0 -0 -0 -0 -0 -0 -0 -0 -0 -0 -0 -0 -0 -0 -0 -0 -0 -0 -0 -0 -0 -0 -0 -0 -0
-175 -165 -130 -228 -309 -0 -0 -0 -0 -0 -0 -0 -0 -0 -0 -0 -0 -0 -0 -0 -0 -0 -0 -0 -0 -0 -0 -0 -0 -0 -0 -0 -0 -0 -0 -0 -0 -0 -0 -0 -0 -0 -0
-195 -197 -155 -143 -261 -29 -0 -0 -0 -0 -0 -0 -0 -0 -0 -0 -0 -0 -0 -0 -0 -0 -0 -0 -0 -0 -0 -0 -0 -0 -0 -0 -0 -0 -0 -0 -0 -0 -0 -0 -0 -0 -0
-188 -203 -160 -136 -216 -332 -0 -0 -0 -0 -0 -0 -0 -0 -0 -0 -0 -0 -0 -0 -0 -0 -0 -0 -0 -0 -0 -0 -0 -0 -0 -0 -0 -0 -0 -0 -0 -0 -0 -0 -2 -1 -1
-203 -196 -157 -154 -193 -266 -0 -0 -0 -0 -0 -0 -0 -0 -0 -0 -0 -0 -0 -0 -0 -0 -0 -0 -0 -0 -0 -0 -0 -0 -0 -0 -0 -0 -0 -0 -0 -0 -0 -0 -0 -1 -5
-0 -0 -292 -239 -124 -314 -0 -0 -0 -0 -0 -0 -0 -0 -0 -0 -0 -0 -0 -0 -0 -0 -0 -0 -0 -0 -0 -0 -0 -0 -0 -0 -0 -0 -0 -0 -0 -0 -0 -0 -0 -0 -0
-0 -0 -0 -0 -204 -254 -100 -0 -0 -0 -0 -0 -0 -0 -0 -0 -0 -0 -0 -0 -0 -0 -0 -0 -0 -0 -0 -0 -0 -0 -0 -0 -0 -0 -0 -0 -0 -0 -0 -0 -0 -0 -0
-0 -0 -0 -0 -0 -79 -219 -0 -0 -0 -0 -0 -0 -0 -0 -0 -0 -0 -0 -0 -0 -0 -0 -0 -0 -0 -0 -0 -0 -0 -0 -0 -0 -0 -0 -0 -0 -0 -0 -0 -0 -0 -0
-0 -0 -0 -0 -0 -0 -0 -0 -0 -0 -0 -0 -0 -0 -0 -0 -0 -0 -0 -0 -0 -0 -0 -0 -0 -0 -0 -0 -0 -0 -0 -0 -0 -0 -0 -0 -0 -0 -0 -0 -0 -0 -0
-0 -0 -0 -0 -0 -0 -0 -0 -0 -0 -0 -0 -0 -0 -0 -0 -0 -0 -0 -0 -0 -0 -0 -0 -0 -0 -0 -0 -0 -0 -0 -0 -0 -0 -0 -0 -0 -0 -0 -0 -0 -0 -0
-0 -0 -0 -0 -0 -0 -0 -0 -0 -0 -0 -0 -0 -0 -0 -0 -0 -0 -0 -0 -0 -0 -0 -0 -0 -0 -0 -0 -0 -0 -0 -0 -0 -0 -0 -0 -0 -0 -0 -0 -0 -0 -0
-0 -0 -0 -0 -0 -0 -0 -0 -0 -0 -0 -0 -0 -0 -0 -0 -0 -0 -0 -0 -0 -0 -0 -0 -0 -0 -0 -0 -0 -0 -0 -0 -0 -0 -0 -0 -0 -0 -0 -0 -0 -0 -0
-0 -0 -0 -0 -0 -0 -0 -0 -0 -0 -0 -0 -0 -0 -0 -0 -0 -0 -0 -0 -0 -0 -0 -0 -0 -0 -0 -0 -0 -0 -0 -0 -0 -0 -0 -0 -0 -0 -0 -0 -0 -0 -0
-0 -0 -0 -0 -0 -0 -0 -0 -0 -0 -0 -0 -0 -0 -0 -0 -0 -0 -0 -0 -0 -0 -0 -0 -0 -0 -0 -0 -0 -0 -0 -0 -0 -0 -0 -0 -0 -0 -0 -0 -0 -0 -0
-0 -0 -0 -0 -0 -0 -0 -0 -0 -0 -0 -0 -0 -0 -0 -0 -0 -0 -0 -0 -0 -0 -0 -0 -0 -0 -0 -0 -0 -0 -0 -0 -0 -0 -0 -0 -0 -0 -0 -0 -0 -0 -0
-0 -0 -0 -0 -0 -0 -0 -0 -0 -0 -0 -0 -0 -0 -0 -0 -0 -0 -0 -0 -0 -0 -0 -0 -0 -0 -0 -0 -0 -0 -0 -0 -0 -0 -0 -0 -0 -0 -0 -0 -0 -0 -0
-0 -0 -0 -0 -0 -0 -0 -0 -0 -0 -0 -0 -0 -0 -0 -0 -0 -0 -0 -0 -0 -0 -0 -0 -0 -0 -0 -0 -0 -0 -0 -0 -0 -0 -0 -0 -0 -0 -0 -0 -0 -0 -0
-0 -0 -0 -0 -0 -0 -0 -0 -0 -0 -0 -0 -0 -0 -0 -0 -0 -0 -0 -0 -0 -0 -0 -0 -0 -0 -0 -0 -0 -0 -0 -0 -0 -0 -0 -0 -0 -0 -0 -0 -0 -0 -0
-0 -0 -0 -0 -0 -0 -0 -0 -0 -0 -0 -0 -0 -0 -0 -0 -0 -0 -0 -0 -0 -0 -0 -0 -0 -0 -0 -0 -0 -0 -0 -0 -0 -0 -0 -0 -0 -0 -0 -0 -0 -0 -0
-0 -0 -0 -0 -0 -0 -0 -0 -0 -0 -0 -0 -0 -0 -0 -0 -0 -0 -0 -0 -0 -0 -0 -0 -0 -0 -0 -0 -0 -0 -0 -0 -0 -0 -0 -0 -0 -0 -0 -0 -0 -0 -0
Wind_Speed
16 16 19 13 12 11 13 10 9 8 9 7 6 4 4 4 3 4 7 6 5 4 4 2 2 3 3 2 2 2 3 4 3 3 3 2 2 1 1 1 2 2 3
13 19 18 16 15 14 15 13 11 9 9 7 4 3 4 2 4 4 5 6 6 5 4 4 3 3 3 3 3 3 1 2 3 3 2 1 3 3 2 2 1 1 2
16 17 20 20 15 16 16 15 15 14 10 8 5 3 3 4 3 2 3 4 6 6 4 4 4 4 3 3 2 3 3 2 2 3 4 2 2 1 2 3 3 4 2
17 15 17 16 16 14 12 14 15 15 11 11 8 7 8 6 4 4 4 5 6 6 5 4 4 4 3 4 3 3 2 3 1 2 2 1 3 2 2 3 2 4 3
19 21 19 19 19 17 17 15 14 13 11 12 11 9 7 4 3 3 7 6 5 6 6 5 5 4 3 3 4 3 3 2 2 2 1 2 3 2 2 1 4 4 2
16 15 20 14 15 14 13 13 14 12 12 12 12 12 11 7 5 5 6 5 4 4 6 6 5 4 4 4 3 3 3 3 3 2 1 2 2 1 2 2 1 1 3
17 18 17 17 16 18 16 12 14 14 13 15 12 13 12 9 11 10 7 6 4 3 6 6 5 3 4 4 4 4 3 3 3 3 2 2 2 2 2 3 1 1 3
18 17 18 19 20 21 20 19 18 17 16 16 15 10 10 7 7 8 5 6 5 6 7 6 6 6 6 4 4 3 3 4 4 4 2 2 1 2 2 3 3 1 1
14 18 17 19 18 18 19 21 22 17 17 18 13 12 10 9 10 9 7 6 5 5 7 7 6 6 5 5 5 4 4 4 4 4 4 3 2 3 3 2 1 3 1
14 14 15 18 17 17 17 16 15 18 16 15 13 13 13 10 9 8 8 8 7 7 7 7 6 6 6 6 6 4 4 5 3 3 4 2 1 1 2 3 2 1 2
7 9 13 14 16 13 14 16 16 17 15 14 13 12 11 9 7 8 8 8 7 8 7 7 7 6 7 6 5 5 6 5 4 4 5 4 4 2 1 0 2 2 2
6 7 7 8 11 14 15 17 15 14 14 13 13 13 12 10 10 9 8 7 7 7 8 7 7 6 6 6 7 6 5 6 6 5 5 4 3 3 3 3 3 2 2
2 2 2 6 14 15 14 14 14 14 13 13 13 12 12 12 11 10 9 8 8 7 7 7 7 7 7 7 6 7 6 6 6 5 6 5 6 4 2 2 4 3 2
4 1 3 4 3 9 15 14 13 14 14 14 14 14 13 13 11 10 10 10 8 8 7 7 7 7 7 6 6 7 7 6 6 6 6 5 5 5 5 5 4 3 4
5 5 4 5 4 5 5 7 9 12 13 14 14 14 11 9 9 9 9 8 9 8 7 7 7 6 7 6 7 7 7 7 6 6 5 5 6 8 6 4 3 4 3
6 6 6 6 6 6 6 7 7 8 10 10 10 9 10 10 10 10 11 10 9 8 7 7 8 7 5 11 12 9 7 7 7 6 5 5 7 6 8 7 6 5 4
6 5 7 7 6 6 6 7 8 8 9 9 9 10 11 10 11 11 10 8 9 7 8 8 8 7 6 12 12 12 6 6 6 7 6 5 4 6 4 4 5 2 5
1 3 5 5 6 5 5 7 7 7 8 8 9 10 11 11 10 11 10 7 8 10 9 8 8 8 6 13 12 12 7 6 6 6 7 6 6 5 5 5 4 2 1
2 2 1 4 4 7 7 8 8 9 9 9 10 11 12 12 13 13 12 9 9 7 8 8 9 9 6 14 13 10 6 6 6 6 6 6 6 8 8 5 4 2 0
3 4 5 3 3 5 7 8 7 7 9 9 11 11 13 14 14 12 12 8 8 8 8 7 7 11 8 14 14 10 5 6 5 5 6 10 8 9 8 5 4 3 3
3 3 4 3 2 3 6 7 7 9 8 7 7 7 8 9 9 9 5 9 7 8 7 9 6 7 9 9 16 15 7 6 6 6 5 4 12 10 8 7 4 4 3
2 3 3 3 4 2 6 7 9 7 7 7 8 8 7 8 7 10 6 8 9 9 8 7 5 5 7 13 15 16 12 11 7 6 4 5 12 11 9 6 7 8 6
2 2 1 3 4 3 2 5 5 7 8 8 8 8 8 8 9 10 9 8 8 9 8 8 8 7 6 6 16 17 16 12 5 4 6 10 14 12 8 8 9 8 3
4 3 3 4 4 4 3 3 4 6 8 9 8 8 10 8 9 8 8 9 9 9 9 8 8 6 6 6 6 7 8 11 6 8 5 6 7 7 6 5 5 3 4
7 5 5 5 6 5 4 4 3 3 5 7 8 8 8 10 9 9 9 10 10 10 10 9 9 9 8 8 12 10 6 6 7 6 3 3 3 3 3 3 4 4 3
6 5 5 4 5 5 3 4 3 3 6 6 5 6 5 5 6 6 3 5 7 11 11 11 10 4 7 13 15 15 15 14 14 5 4 4 4 5 4 4 4 4 6
Wind_Direction
178 174 179 224 161 157 155 156 152 163 152 153 151 151 166 149 145 164 162 151 158 151 145 143 127 114 114 116 79 62 58 16 18 63 16 352 342 47 52 62 55 28 19
178 199 185 178 167 163 166 167 168 167 167 163 156 144 148 157 144 157 163 160 159 162 158 154 145 131 109 98 87 70 65 39 19 107 104 59 338 354 312 319 10 338 16
185 192 189 176 164 171 181 174 177 179 169 156 144 115 102 76 101 173 166 182 163 166 151 153 145 144 131 147 140 122 107 93 348 57 137 95 198 337 335 299 348 354 3
193 202 184 158 184 192 182 178 181 177 172 166 164 174 171 161 187 172 170 178 170 170 161 158 155 153 152 148 161 146 137 117 90 7 39 103 147 137 346 339 17 357 3
190 201 204 177 193 169 189 181 184 178 168 176 179 166 163 173 147 154 165 176 177 169 167 164 167 165 157 155 147 135 133 131 127 133 46 41 47 75 120 286 326 345 356
195 200 207 193 184 174 184 172 175 184 174 183 179 178 176 172 153 162 172 177 175 169 172 166 167 174 160 160 158 161 157 131 125 125 111 152 146 143 112 103 312 306 300
193 197 183 183 180 185 182 172 173 184 190 181 197 184 180 174 171 170 175 166 165 178 188 170 170 175 171 158 147 144 139 151 139 148 158 150 149 146 138 120 112 51 306
194 193 187 185 185 190 182 175 180 191 193 188 191 189 178 180 180 170 171 180 176 175 172 175 169 169 164 156 150 145 164 154 162 168 163 150 144 128 130 144 136 46 311
200 191 185 189 190 186 189 189 177 189 190 194 184 185 185 175 184 173 165 170 169 165 167 165 166 162 158 160 154 163 175 163 169 180 177 164 176 170 141 107 90 153 159
202 200 190 192 190 187 182 179 185 189 188 190 183 187 186 178 177 158 166 161 159 152 158 161 163 163 160 161 159 167 172 155 164 160 148 151 151 158 133 158 170 202 219
209 195 190 183 190 185 177 183 181 185 185 184 180 179 176 168 163 167 160 164 151 154 163 164 163 166 160 164 159 164 163 149 147 143 148 153 142 127 103 280 146 176 165
162 187 181 178 174 181 183 186 184 183 177 174 176 181 169 162 164 166 160 160 162 163 165 164 158 166 165 159 158 158 143 145 138 139 121 128 131 94 99 105 94 110 85
25 18 229 185 180 185 184 182 183 182 171 170 172 171 173 171 171 168 160 160 159 167 162 156 157 160 161 149 151 146 140 136 139 138 135 137 122 112 100 87 86 73 60
248 254 303 268 229 198 183 179 179 176 173 170 174 176 177 178 169 159 161 167 158 160 165 163 158 158 157 149 145 142 139 134 132 126 126 122 123 132 115 96 100 89 92
236 242 221 226 240 175 166 191 183 171 170 168 172 177 170 162 152 155 159 155 162 166 160 148 149 152 150 159 152 145 143 140 135 128 120 124 126 130 133 126 121 113 99
240 240 247 234 227 201 176 155 150 148 156 168 170 157 156 158 164 163 165 162 163 158 149 152 150 156 157 159 151 146 146 149 144 147 140 142 141 139 127 127 136 141 135
227 209 223 228 218 199 174 165 150 142 146 156 162 165 161 158 166 165 160 164 164 143 158 160 158 158 155 158 156 153 150 150 154 155 156 164 152 131 121 98 99 97 181
36 225 211 206 208 175 147 131 137 144 148 157 162 165 162 163 158 161 167 165 158 164 165 171 164 154 173 166 162 153 152 146 152 157 165 153 155 149 138 131 122 104 83
12 31 335 221 187 178 163 147 155 156 155 164 165 166 165 163 167 178 175 173 159 171 170 171 163 165 168 169 167 151 149 146 158 162 165 161 158 162 146 137 142 124 211
64 29 354 8 181 196 154 146 162 168 188 182 180 174 173 174 180 178 174 168 173 172 168 168 169 173 169 178 173 161 149 150 162 171 177 168 162 166 161 145 159 179 234
50 37 31 43 7 187 158 168 166 190 186 163 159 165 175 176 174 165 160 162 160 154 164 174 174 170 172 183 181 176 167 170 171 175 176 178 174 172 180 180 183 203 189
56 63 38 0 339 36 167 186 191 189 165 162 165 171 167 170 162 166 162 165 164 167 170 164 169 179 178 184 189 187 184 180 173 180 175 178 184 180 190 205 228 238 243
66 98 63 340 328 335 157 213 228 166 171 170 174 171 164 170 167 171 171 167 169 174 178 180 182 185 182 186 190 192 192 188 170 159 175 180 184 189 209 233 237 238 194
8 22 12 343 322 310 290 229 237 184 173 181 176 167 174 165 168 176 177 179 183 183 183 184 186 181 181 184 177 188 190 191 172 174 176 178 183 198 208 223 243 225 209
2 0 356 339 307 315 290 294 276 182 177 176 175 176 179 180 175 184 184 190 197 191 184 188 181 176 185 192 186 180 175 178 181 154 146 170 178 198 217 231 232 229 222
14 11 354 322 317 335 286 288 281 189 162 159 163 166 161 161 171 167 149 201 172 183 188 181 179 181 179 177 182 184 190 194 189 168 172 185 192 204 206 215 229 218 237